Location: Middlebury
(44.0153°N, 73.1678°W)
Time: 19:53:51
(UTC-04:00)

DIWATA 2B (PO-101) - Pass Details

Date: 20 June 2024
Orbit: 575 x 586 km, 98.1° (Epoch: 23 July)

Event Time Altitude Azimuth Distance (km) Brightness Sun altitude
Rises 02:59:05 0° 115° (ESE) 2,781 ? -16.7°
Reaches altitude 10° 03:02:22 10° 86° (E) 1,889 ? -16.4°
Maximum altitude 03:04:05 12° 61° (ENE) 1,736 ? -16.3°
Drops below altitude 10° 03:05:48 10° 36° (NE) 1,896 ? -16.1°
Sets 03:09:07 0° 7° (N) 2,803 ? -15.8°
